Location: Owatonna
(44.0840°N, 93.2260°W)
Time: 04:23:49
(UTC-06:00)

Daily predictions for brighter satellites

Satellite Brightness Start Highest point End
(mag) Time Altitude Azimuth Time Altitude Azimuth Time Altitude Azimuth
ATLAS 5 CENTAUR R/B 4.4 03:22:37 17° E 03:22:37 17° E 03:24:31 10° ENE
Cosmos 1943 Rocket 4.2 03:28:16 22° ESE 03:28:32 22° E 03:32:38 10° NE
ADEOS II 2.5 04:02:32 10° NNE 04:07:16 59° ENE 04:07:16 59° ENE
USA 234 3.6 04:02:41 10° NE 04:09:06 57° SE 04:10:14 51° S
Lacrosse 5 2.9 04:10:00 41° ESE 04:10:00 41° ESE 04:14:21 10° ENE
CZ-4B DEB 4.3 04:08:36 10° NNE 04:13:59 75° E 04:13:59 75° E
ADEOS Rocket 4.2 04:08:55 10° N 04:13:03 31° NNW 04:13:03 31° NNW
Okean O Rocket 3.7 04:11:45 10° N 04:13:00 19° N 04:13:00 19° N
Cosmos 2369 Rocket 2.4 04:25:33 59° NNW 04:25:33 59° NNW 04:30:23 10° NNE
Cosmos 407 Rocket 3.5 04:28:00 36° NNW 04:30:15 79° ENE 04:35:34 10° SSE
IRAS Rocket 4.3 04:27:23 10° N 04:32:14 62° NNW 04:32:14 62° NNW
Cosmos 676 Rocket 4.5 04:28:41 10° NNW 04:33:57 61° ENE 04:39:12 10° SSE
Cosmos 972 Rocket 3.9 04:35:00 77° NW 04:35:00 77° NW 04:40:16 10° NNE
Nadezhda 2 Rocket 4.4 04:31:08 10° N 04:37:16 84° E 04:43:24 10° S
Cosmos 2266 Rocket 4.0 04:33:12 10° NNW 04:47:11 - S 04:38:23 54° WNW
Cosmos 1833 4.0 04:41:47 21° NNW 04:45:38 87° WSW 04:51:14 10° SSE
Cosmos 1140 Rocket 4.2 04:46:04 10° NNW 04:51:11 52° ENE 04:56:17 10° SE
GEOS 3 Rocket 4.5 04:46:51 10° SSE 04:49:56 32° SSW 04:49:56 32° SSW
Cosmos 1867 4.2 04:52:15 39° NW 04:52:15 39° NW 04:57:18 10° NNE
IRS-1C Rocket 4.5 04:49:15 10° N 04:53:44 43° NW 04:53:44 43° NW
Cosmos 1190 Rocket 4.1 04:57:30 51° WSW 04:57:30 51° WSW 05:02:15 10° S
Lacrosse 5 rocket 3.4 04:56:57 14° N 04:58:12 16° NNE 05:00:34 10° ENE
Okean 1-7 3.8 04:55:35 10° S 04:59:44 52° E 05:03:53 10° NNE
ERS-2 3.7 04:56:24 10° N 04:58:08 25° N 04:58:08 25° N
Sich 1 Rocket 3.5 04:56:22 10° NNW 05:00:52 63° W 05:05:17 10° S
Cosmos 1908 Rocket 3.5 04:58:53 10° NNW 05:03:19 62° W 05:07:43 10° S
ATLAS 5 CENTAUR R/B 1.9 05:04:12 50° W 05:04:57 55° NW 05:10:07 10° NNE
Tiangong 1 2.4 05:07:42 30° SSE 05:07:42 30° SSE 05:10:04 10° E
Meteor 2-10 Rocket 3.3 05:03:44 10° S 05:08:44 89° W 05:13:50 10° N
Cosmos 1782 Rocket 3.5 05:04:23 10° N 05:08:53 88° E 05:13:19 10° S
Okean-O 2.5 05:05:58 10° N 05:10:25 74° WNW 05:13:21 21° SSW
CZ-4B R/B 3.7 05:06:01 10° N 05:11:09 38° WNW 05:12:00 36° W
Cosmos 1943 Rocket 2.2 05:09:50 37° WSW 05:11:48 56° WNW 05:17:17 10° NNE
Cosmos 2056 Rocket 3.9 05:14:50 37° W 05:15:31 38° WNW 05:20:24 10° N
Meteor 1-28 Rocket 4.4 05:12:16 10° SE 05:15:49 43° ENE 05:19:23 10° N
ATLAS CENTAUR R/B 4.0 05:15:18 29° W 05:17:51 37° SW 05:31:56 10° SSE
Meteor 1-14 Rocket 4.2 05:13:42 10° NNW 05:19:33 76° W 05:25:13 10° S
Cosmos 1782 4.0 05:17:30 10° SSE 05:21:15 43° E 05:25:03 10° NNE
SKYMED 2 3.7 05:17:14 10° SSE 05:21:33 78° ENE 05:25:55 10° N
Cosmos 1244 Rocket 4.5 05:16:35 10° NNW 05:22:42 58° W 05:28:43 10° S
CZ-4C R/B 2.3 05:18:41 13° SSW 05:23:26 76° ESE 05:29:25 10° NE
Cosmos 1954 Rocket 4.0 05:18:59 10° NNW 05:24:15 63° WSW 05:29:30 10° S
NOAA 6 4.0 05:23:16 10° NNE 05:28:28 86° WNW 05:33:36 10° SSW
Ariane Rocket 4.3 05:24:11 10° NNE 05:29:01 42° E 05:33:48 10° S
Okean 2 Rocket 2.9 05:27:17 10° NNW 05:31:41 71° W 05:36:03 10° S
Cosmos 1420 Rocket 4.0 05:27:06 10° SSW 05:32:16 81° ESE 05:37:29 10° NNE
Cosmos 1606 3.7 05:34:04 10° S 05:37:49 51° E 05:41:37 10° NNE
SL-08 R/B 4.5 05:32:00 10° NNW 05:38:17 69° W 05:44:34 10° S
Meteor 1-26 Rocket 4.5 05:37:29 10° SSW 05:42:55 45° WNW 05:48:18 10° N
Cosmos 1703 Rocket 4.2 05:41:24 14° SW 05:44:35 33° WNW 05:48:34 10° N
Thor Agena Rocket 4.1 05:40:00 10° SSW 05:44:46 36° W 05:49:32 10° NNW
ADEOS II 3.4 05:43:19 10° NNW 05:47:01 20° WNW 05:48:14 18° W
DMSP B5D1-3 4.4 05:42:37 10° S 05:47:42 78° WSW 05:52:50 10° NNW
Meteor 1-31 Rocket 3.8 05:45:27 10° NNW 05:48:43 26° WNW 05:50:24 19° WSW
Meteor 1-25 Rocket 4.3 05:43:52 10° NNW 05:49:37 61° W 05:55:20 10° S
Cosmos 2297 Rocket 3.8 05:44:42 10° N 05:49:53 35° NE 05:55:01 10° ESE
S3M 4.0 05:44:07 10° SSW 05:50:23 63° W 05:56:39 10° N
Cosmos 2151 Rocket 3.6 05:46:17 10° N 05:50:50 87° E 05:55:19 10° S
USA 234 3.5 05:45:47 10° NE 05:52:05 52° NNW 05:57:37 14° W
Lacrosse 5 2.4 05:49:14 19° W 05:52:34 43° NNW 05:57:25 10° NE
CZ-4 R/B 3.6 05:50:31 10° NNE 05:54:13 30° E 05:57:51 10° SSE
Cosmos 1452 Rocket 4.0 05:51:54 10° SW 05:56:52 40° WNW 06:01:52 10° N
Cosmos 1553 Rocket 4.1 05:52:17 10° SSW 05:58:17 53° WNW 06:04:28 10° N
Cosmos 2219 3.4 05:57:28 10° NW 06:02:57 50° WSW 06:08:20 10° S
Cosmos 1741 Rocket 4.1 06:01:40 10° NNW 06:06:48 57° WSW 06:11:55 10° S
Meteor 1-11 Rocket 4.2 06:02:19 10° N 06:08:19 74° E 06:14:12 10° SSE
COSMO-SKYMED 1 3.3 06:05:50 10° SSW 06:09:43 32° W 06:13:38 10° NNW
Cosmos 2369 Rocket 4.0 06:07:22 11° WNW 06:09:52 14° NW 06:12:43 10° N
Cosmos 2227 Rocket 2.8 06:04:17 10° NNW 06:09:56 63° ENE 06:15:32 10° SE
Meteor 1-10 Rocket 4.2 06:06:55 10° SSW 06:12:27 68° WNW 06:18:06 10° N
Meteor 2-11 Rocket 4.5 06:09:53 10° SSW 06:15:55 63° W 06:22:02 10° N
Cosmos 1656 Rocket 4.3 06:13:11 10° WSW 06:18:26 37° WNW 06:23:43 10° NNE
ATLAS 3B R/B 3.1 06:13:49 10° SSW 06:21:24 82° ESE 06:28:43 10° NE
USA 81 4.4 06:17:31 10° SSW 06:22:31 44° W 06:27:35 10° N
Abrixas 3.6 06:22:16 10° WNW 06:24:55 32° N 06:27:35 10° ENE
SJ-12 4.2 06:21:08 10° NNE 06:25:15 77° E 06:29:22 10° S
Cosmos 1709 Rocket 3.9 06:21:42 10° NNW 06:27:47 72° W 06:33:52 10° S
Cosmos 1536 3.2 06:26:01 10° N 06:30:01 69° E 06:34:00 10° SSE
